Starlink 1392

operational
NORAD ID: 45677 Int'l Des: 2020-035 Owner: SPXS Country: US Constellation: starlink
LEOCIRCULARSTARLINK_TYPE

Starlink 1392について

説明を読み込み中...

リアルタイム位置

3D地球を読み込み中...

次回通過

高度履歴

Altitude vs Time

uPlot chart will show altitude changes over time

軌道要素

1 45677U 20035W 26036.73313916 .00042279 00000-0 28547-2 0 9991
2 45677 53.0572 210.0772 0003046 76.1950 283.9378 15.06210898313910
Epoch: Feb 5, 2026 • Age: 8 hours

現在のステータス

高度 551.9 km
速度 7.59 km/s
衛星直下点 52.27°N, 118.7°E
打ち上げ日 Jun 4, 2020
運用期間 5.6 years
タイプ internet

技術仕様

分類 Payload
質量 260.00 kg
乾燥質量 248.00 kg
総質量 260.00 kg
長さ 0.20 m
直径 2.80 m
スパン 9.00 m
形状 Box + pan
製造者 SPXS
バスタイプ Starlink
フェーズステータス In Orbit
所有者/国 SPXS/US

大規模コンステレーション

Loading constellations...